COSMOS 2228 (22286 NORAD) Tracking and Keplerian Element Data

This shows tracking and keplerian element data for the satellite.

Feedback or suggestion? Click here.




ElementValue
Catalog22286
NameCOSMOS 2228
Epoch Orbit76416
Epoch Day354.17788812
Epoch Year2025
RAAN313.417
Inclination82.5181
Eccentricity0.0017063
Argument of Perigee204.6715
Mean Anonmoly155.3693
Mean Motion14.96760958
Decay Rate1.726E-05
L11 22286U 92094A 25354.17788812 .00001726 00000+0 14832-3 0 9991
L22 22286 82.5181 313.4170 0017063 204.6715 155.3693 14.96760958764169



Live tracking and technical data element details for COSMOS 2228 (NORAD 22286). COSMOS 2228 can be tracked NOW for your location showing map with azimuth and elevation plus other details from your city location.







IsCatalogInMostPopularTable: catalog: 22286, numindb: 573
Update: records affected: 1



GetName: 22286 COSMOS 2228

Hit Count: updated at: Mon, 18 May 2026 10:02:56 GMT